Starlink 34711

operational
NORAD ID: 64912 Int'l Des: 2025-157 Owner: SPXS Country: US Constellation: starlink
LEOCIRCULAR

Starlink 34711について

説明を読み込み中...

リアルタイム位置

3D地球を読み込み中...

次回通過

高度履歴

Altitude vs Time

uPlot chart will show altitude changes over time

軌道要素

1 64912U 25157J 25342.50381718 .00065732 00000-0 16383-2 0 9997
2 64912 53.1589 53.4275 0001441 92.5387 267.5783 15.39635363 22102
Epoch: Dec 8, 2025 • Age: 15 hours

現在のステータス

高度 446.8 km
速度 7.65 km/s
衛星直下点 15.53°N, 98.39°E
打ち上げ日 Jul 26, 2025
運用期間 0.3 years
タイプ internet

技術仕様

分類 Payload
質量 575.00 kg
乾燥質量 530.00 kg
総質量 575.00 kg
長さ 0.30 m
直径 4.10 m
スパン 29.00 m
形状 Box + pan
製造者 SPXS
バスタイプ Starlink V2MO
フェーズステータス In Orbit
所有者/国 SPXS/US

大規模コンステレーション

Loading constellations...